EN

Hourly Weather A dos Cunhados

Today, 26 November, Thursday

Time Temperature Precipitation Wind Pressure Humidity
00:00 +9°C° 0.5 mm 3 mps 745 mmHg 93%
01:00 +9°C° 0.5 mm 2 mps 744 mmHg 92%
02:00 +9°C° 0.5 mm 2 mps 744 mmHg 91%
03:00 +9°C° 0.1 mm 2 mps 744 mmHg 93%
04:00 +8°C° 0.1 mm 2 mps 743 mmHg 94%
05:00 +8°C° 0.1 mm 3 mps 743 mmHg 96%
06:00 +9°C° 0 mm 3 mps 743 mmHg 94%
07:00 +9°C° 0 mm 3 mps 744 mmHg 92%
08:00 +10°C° 0 mm 4 mps 744 mmHg 90%
09:00 +11°C° 0 mm 4 mps 744 mmHg 84%
10:00 +12°C° 0 mm 5 mps 744 mmHg 79%
11:00 +13°C° 0 mm 5 mps 744 mmHg 73%
12:00 +14°C° 0.1 mm 5 mps 744 mmHg 72%
13:00 +14°C° 0.1 mm 6 mps 744 mmHg 70%
14:00 +14°C° 0.1 mm 6 mps 744 mmHg 68%
15:00 +13°C° 0.1 mm 6 mps 744 mmHg 73%
16:00 +11°C° 0.1 mm 7 mps 744 mmHg 78%
17:00 +10°C° 0.1 mm 7 mps 745 mmHg 83%
18:00 +10°C° 0 mm 7 mps 745 mmHg 84%
19:00 +9°C° 0 mm 7 mps 746 mmHg 86%
20:00 +9°C° 0 mm 6 mps 746 mmHg 87%
21:00 +9°C° 0 mm 6 mps 746 mmHg 88%
22:00 +8°C° 0 mm 6 mps 747 mmHg 88%
23:00 +8°C° 0 mm 6 mps 747 mmHg 89%

Tomorrow, 27 November, Friday

Time Temperature Precipitation Wind Pressure Humidity
00:00 +8°C° 0 mm 6 mps 747 mmHg 90%
01:00 +7°C° 0 mm 5 mps 747 mmHg 91%
02:00 +7°C° 0 mm 5 mps 747 mmHg 92%
03:00 +7°C° 0 mm 5 mps 747 mmHg 92%
04:00 +7°C° 0 mm 4 mps 747 mmHg 92%
05:00 +7°C° 0 mm 4 mps 747 mmHg 92%
06:00 +8°C° 0 mm 3 mps 747 mmHg 89%
07:00 +9°C° 0 mm 3 mps 747 mmHg 85%
08:00 +9°C° 0 mm 2 mps 747 mmHg 82%
09:00 +11°C° 0 mm 3 mps 747 mmHg 75%
10:00 +13°C° 0 mm 4 mps 747 mmHg 69%
11:00 +15°C° 0 mm 4 mps 747 mmHg 62%
12:00 +15°C° 0 mm 5 mps 747 mmHg 64%
13:00 +15°C° 0 mm 6 mps 747 mmHg 66%
14:00 +15°C° 0 mm 6 mps 746 mmHg 68%
15:00 +14°C° 0 mm 6 mps 747 mmHg 75%
16:00 +13°C° 0 mm 6 mps 747 mmHg 83%
17:00 +12°C° 0 mm 5 mps 747 mmHg 90%
18:00 +10°C° 0 mm 5 mps 747 mmHg 91%
19:00 +11°C° 0 mm 4 mps 747 mmHg 91%
20:00 +11°C° 0 mm 4 mps 747 mmHg 92%
21:00 +10°C° 0 mm 3 mps 747 mmHg 92%
22:00 +10°C° 0 mm 3 mps 747 mmHg 92%
23:00 +10°C° 0 mm 2 mps 747 mmHg 92%

Day after tomorrow, 28 November, Saturday

Time Temperature Precipitation Wind Pressure Humidity
00:00 +10°C° 0 mm 2 mps 747 mmHg 93%
01:00 +11°C° 0 mm 1 mps 747 mmHg 93%
02:00 +11°C° 0 mm 1 mps 747 mmHg 93%
03:00 +11°C° 0 mm 1 mps 747 mmHg 92%
04:00 +11°C° 0 mm 1 mps 747 mmHg 92%
05:00 +11°C° 0 mm 1 mps 746 mmHg 92%
06:00 +11°C° 0 mm 1 mps 746 mmHg 90%
07:00 +12°C° 0 mm 1 mps 747 mmHg 88%
08:00 +13°C° 0 mm 1 mps 747 mmHg 86%
09:00 +14°C° 0 mm 2 mps 747 mmHg 81%
10:00 +14°C° 0 mm 3 mps 747 mmHg 76%
11:00 +17°C° 0 mm 4 mps 747 mmHg 70%
12:00 +17°C° 0 mm 4 mps 746 mmHg 69%
13:00 +16°C° 0 mm 5 mps 745 mmHg 67%
14:00 +16°C° 0 mm 5 mps 744 mmHg 65%
15:00 +15°C° 0 mm 6 mps 744 mmHg 69%
16:00 +14°C° 0 mm 6 mps 744 mmHg 73%
17:00 +13°C° 0 mm 6 mps 744 mmHg 78%
18:00 +12°C° 0.1 mm 7 mps 744 mmHg 77%
19:00 +12°C° 0.1 mm 8 mps 743 mmHg 77%
20:00 +12°C° 0.1 mm 9 mps 743 mmHg 76%
21:00 +12°C° 2.5 mm 7 mps 743 mmHg 81%
22:00 +11°C° 2.5 mm 6 mps 744 mmHg 86%
23:00 +12°C° 2.5 mm 5 mps 744 mmHg 92%

29 November, Sunday

Time Temperature Precipitation Wind Pressure Humidity
00:00 +12°C° 0.3 mm 4 mps 744 mmHg 91%
01:00 +11°C° 0.3 mm 4 mps 744 mmHg 90%
02:00 +11°C° 0.3 mm 4 mps 744 mmHg 89%
03:00 +11°C° 0 mm 4 mps 744 mmHg 89%
04:00 +10°C° 0 mm 4 mps 744 mmHg 90%
05:00 +8°C° 0 mm 4 mps 745 mmHg 90%
06:00 +10°C° 0 mm 3 mps 745 mmHg 89%
07:00 +10°C° 0 mm 3 mps 746 mmHg 88%
08:00 +11°C° 0 mm 3 mps 746 mmHg 86%
09:00 +12°C° 0.1 mm 4 mps 747 mmHg 78%
10:00 +14°C° 0.1 mm 4 mps 747 mmHg 71%
11:00 +15°C° 0.1 mm 5 mps 748 mmHg 63%
12:00 +15°C° 0.1 mm 5 mps 748 mmHg 63%
13:00 +15°C° 0.1 mm 4 mps 748 mmHg 63%
14:00 +15°C° 0.1 mm 4 mps 748 mmHg 63%
15:00 +14°C° 0.2 mm 4 mps 748 mmHg 69%
16:00 +13°C° 0.2 mm 4 mps 748 mmHg 75%
17:00 +11°C° 0.2 mm 4 mps 749 mmHg 81%
18:00 +10°C° 0 mm 5 mps 749 mmHg 83%
19:00 +10°C° 0 mm 5 mps 749 mmHg 85%
20:00 +9°C° 0 mm 6 mps 750 mmHg 87%
21:00 +9°C° 0 mm 6 mps 750 mmHg 87%
22:00 +9°C° 0 mm 6 mps 750 mmHg 86%
23:00 +9°C° 0 mm 6 mps 750 mmHg 86%

30 November, Monday

Time Temperature Precipitation Wind Pressure Humidity
00:00 +9°C° 0 mm 6 mps 750 mmHg 87%
01:00 +9°C° 0 mm 6 mps 750 mmHg 88%
02:00 +9°C° 0 mm 6 mps 750 mmHg 89%
03:00 +9°C° 0 mm 6 mps 750 mmHg 90%
04:00 +9°C° 0 mm 6 mps 750 mmHg 90%
05:00 +9°C° 0 mm 7 mps 750 mmHg 90%
06:00 +9°C° 0 mm 7 mps 750 mmHg 88%
07:00 +10°C° 0 mm 7 mps 750 mmHg 86%
08:00 +10°C° 0 mm 7 mps 750 mmHg 84%
09:00 +12°C° 0 mm 7 mps 751 mmHg 79%
10:00 +14°C° 0 mm 7 mps 751 mmHg 74%
11:00 +15°C° 0 mm 7 mps 751 mmHg 69%
12:00 +16°C° 0 mm 7 mps 751 mmHg 69%
13:00 +16°C° 0 mm 7 mps 751 mmHg 68%
14:00 +17°C° 0 mm 6 mps 750 mmHg 67%
15:00 +16°C° 0 mm 6 mps 751 mmHg 69%
16:00 +15°C° 0 mm 6 mps 751 mmHg 72%
17:00 +15°C° 0 mm 6 mps 751 mmHg 74%
18:00 +14°C° 0 mm 6 mps 751 mmHg 75%
19:00 +14°C° 0 mm 7 mps 751 mmHg 75%
20:00 +12°C° 0 mm 7 mps 751 mmHg 76%
21:00 +12°C° 0 mm 7 mps 752 mmHg 77%
22:00 +12°C° 0 mm 7 mps 752 mmHg 77%
23:00 +12°C° 0 mm 7 mps 752 mmHg 78%

1 December, Tuesday

Time Temperature Precipitation Wind Pressure Humidity
00:00 +12°C° 0 mm 7 mps 752 mmHg 77%
01:00 +12°C° 0 mm 7 mps 752 mmHg 76%
02:00 +13°C° 0 mm 6 mps 752 mmHg 76%
03:00 +12°C° 0 mm 7 mps 752 mmHg 75%
04:00 +12°C° 0 mm 7 mps 752 mmHg 75%
05:00 +12°C° 0 mm 7 mps 752 mmHg 74%
06:00 +12°C° 0.2 mm 7 mps 753 mmHg 75%
07:00 +12°C° 0.2 mm 7 mps 753 mmHg 75%
08:00 +12°C° 0.2 mm 8 mps 753 mmHg 76%
09:00 +12°C° 0.4 mm 7 mps 754 mmHg 78%
10:00 +14°C° 0.4 mm 7 mps 754 mmHg 80%
11:00 +14°C° 0.4 mm 7 mps 754 mmHg 82%
12:00 +14°C° 0 mm 6 mps 754 mmHg 81%
13:00 +14°C° 0 mm 6 mps 754 mmHg 80%
14:00 +15°C° 0 mm 5 mps 754 mmHg 78%
15:00 +14°C° 0 mm 5 mps 754 mmHg 79%
16:00 +13°C° 0 mm 5 mps 754 mmHg 79%
17:00 +13°C° 0 mm 5 mps 754 mmHg 80%
18:00 +13°C° 0 mm 5 mps 755 mmHg 81%
19:00 +13°C° 0 mm 5 mps 755 mmHg 81%
20:00 +11°C° 0 mm 6 mps 755 mmHg 82%
21:00 +11°C° 0 mm 6 mps 755 mmHg 81%
22:00 +12°C° 0 mm 5 mps 755 mmHg 80%
23:00 +12°C° 0 mm 5 mps 755 mmHg 79%
Show more